Abilene, TX

3:52 AM CST on December 14, 2019 (GMT -0600)
Abilene Regional

Weather History for KABI - October, 2019

Change the Weather History Date:

Friday, October 11, 2019

  Actual Average Record
Temperature  
Mean Temperature 51 °F 67 °F  
Max Temperature 62 °F 79 °F 97 °F (1979)
Min Temperature 40 °F 56 °F 40 °F (1946)
Degree Days  
Heating Degree Days 14 2  
Month to date heating degree days 14 18  
Since 1 July heating degree days 14 29  
Cooling Degree Days 0 4  
Month to date cooling degree days 125 60  
Year to date cooling degree days 2858 2331  
Growing Degree Days 2 (Base 50)    
Moisture  
Dew Point 26 °F    
Average Humidity 43    
Maximum Humidity 70    
Minimum Humidity 16    
Precipitation  
Precipitation 0.15 in 0.10 in 1.55 in (2007)
Month to date precipitation 0.19 1.00  
Year to date precipitation 20.00 20.20  
Sea Level Pressure  
Sea Level Pressure 30.24 in    
Wind  
Wind Speed 16 mph (North)    
Max Wind Speed 30 mph    
Max Gust Speed 39 mph    
Visibility 10 miles    
Events Rain , Thunderstorm    
T = Trace of Precipitation, MM = Missing Value Source: NWS Daily Summary

Daily Weather History Graph

Daily Weather History Graph

Search for Another Location

Airport or City:

Astronomy

Oct. 11, 2019 Rise Set
Actual Time 7:39 AM CDT 7:10 PM CDT
Civil Twilight 7:14 AM CDT 7:35 PM CDT
Nautical Twilight 6:46 AM CDT 8:04 PM CDT
Astronomical Twilight 6:17 AM CDT 8:32 PM CDT
Moon 6:30 PM CDT (10/11) 5:33 AM CDT (10/11)
Length of Visible Light 12h 20m
Length of Day
11h 31m
Waxing Gibbous, 96% of the Moon is Illuminated
Oct 11
Waxing Gibbous
Oct 13
Full
Oct 21
Last Quarter
Oct 27
New
Nov 4
First Quarter

Hourly Weather History & Observations

Time (CDT) Temp. Windchill Dew Point Humidity Pressure Visibility Wind Dir Wind Speed Gust Speed Precip Events Conditions
12:52 AM 53.1 °F - 34.0 °F 48% 30.03 in 10.0 mi North 21.9 mph 35.7 mph N/A   Clear
1:52 AM 51.1 °F - 30.9 °F 46% 30.05 in 10.0 mi North 20.7 mph 33.4 mph N/A   Clear
2:52 AM 48.9 °F - 28.9 °F 46% 30.09 in 10.0 mi North 25.3 mph 34.5 mph N/A   Mostly Cloudy
3:24 AM 48.9 °F - 28.0 °F 44% 30.18 in 10.0 mi North 23.0 mph 33.4 mph N/A Thunderstorm Scattered Clouds
3:39 AM 46.0 °F 38.8 °F 33.1 °F 61% 30.16 in 5.0 mi North 18.4 mph 34.5 mph 0.06 in Rain Light Rain
3:52 AM 46.0 °F 37.6 °F 33.1 °F 61% 30.11 in 5.0 mi North 24.2 mph 31.1 mph 0.10 in Rain , Thunderstorm Thunderstorms and Rain
4:21 AM 46.0 °F 38.8 °F 32.0 °F 58% 30.18 in 10.0 mi North 18.4 mph 36.8 mph 0.04 in Thunderstorm Mostly Cloudy
4:30 AM 46.0 °F 37.4 °F 33.1 °F 61% 30.16 in 10.0 mi North 25.3 mph 34.5 mph 0.04 in Thunderstorm Thunderstorm
4:44 AM 45.0 °F 35.6 °F 30.9 °F 58% 30.17 in 10.0 mi North 27.6 mph 35.7 mph 0.04 in   Mostly Cloudy
4:52 AM 46.0 °F 37.6 °F 30.0 °F 54% 30.12 in 10.0 mi North 24.2 mph 35.7 mph 0.04 in   Mostly Cloudy
5:20 AM 42.1 °F 33.1 °F 35.1 °F 76% 30.20 in 10.0 mi North 20.7 mph - 0.00 in Rain , Thunderstorm Light Thunderstorms and Rain
5:37 AM 42.1 °F 34.2 °F 35.1 °F 76% 30.22 in - North 16.1 mph - 0.00 in   Overcast
5:52 AM 43.0 °F 33.3 °F 32.0 °F 65% 30.17 in 10.0 mi North 25.3 mph 33.4 mph 0.00 in   Overcast
6:08 AM 42.1 °F 32.8 °F 33.1 °F 70% 30.24 in 10.0 mi North 21.9 mph - 0.01 in Rain , Thunderstorm Light Rain
6:23 AM 42.1 °F 32.8 °F 33.1 °F 70% 30.24 in 10.0 mi NNW 21.9 mph 27.6 mph 0.01 in Rain Light Rain
6:52 AM 42.1 °F 34.2 °F 33.1 °F 70% 30.24 in 10.0 mi North 16.1 mph - 0.01 in   Overcast
7:52 AM 42.1 °F 32.8 °F 28.0 °F 58% 30.27 in - North 21.9 mph 28.8 mph N/A   Overcast
8:52 AM 42.1 °F 32.8 °F 28.0 °F 58% 30.30 in 10.0 mi North 21.9 mph 27.6 mph N/A   Overcast
10:52 AM 48.0 °F - 23.0 °F 37% 30.34 in 10.0 mi North 23.0 mph 31.1 mph N/A   Clear
11:52 AM 52.0 °F - 19.9 °F 28% 30.34 in 10.0 mi North 20.7 mph 29.9 mph N/A   Clear
12:52 PM 55.0 °F - 19.9 °F 25% 30.34 in 10.0 mi North 17.3 mph 26.5 mph N/A   Clear
1:52 PM 57.9 °F - 19.0 °F 22% 30.32 in 10.0 mi North 21.9 mph 25.3 mph N/A   Clear
2:52 PM 59.0 °F - 15.1 °F 18% 30.29 in 10.0 mi NNE 17.3 mph 25.3 mph N/A   Clear
3:52 PM 60.1 °F - 16.0 °F 18% 30.27 in 10.0 mi North 16.1 mph 25.3 mph N/A   Clear
4:52 PM 60.1 °F - 16.0 °F 18% 30.26 in 10.0 mi North 13.8 mph - N/A   Partly Cloudy
5:52 PM 61.0 °F - 14.0 °F 16% 30.27 in 10.0 mi NNE 11.5 mph 19.6 mph N/A   Clear
6:52 PM 57.9 °F - 15.1 °F 19% 30.27 in 10.0 mi NNE 10.4 mph - N/A   Clear
7:52 PM 54.0 °F - 18.0 °F 24% 30.29 in 10.0 mi NNE 8.1 mph - N/A   Clear
8:52 PM 50.0 °F - 21.9 °F 33% 30.31 in 10.0 mi NNE 5.8 mph - N/A   Clear
9:52 PM 48.9 °F - 21.0 °F 33% 30.32 in 10.0 mi NE 5.8 mph - N/A   Clear
10:52 PM 46.0 °F - 25.0 °F 44% 30.32 in 10.0 mi Calm Calm - N/A   Clear
11:52 PM 42.1 °F - 28.0 °F 58% 30.32 in 10.0 mi Calm Calm - N/A   Clear